Other Surface Observations
Issued by NWS

Home | Current Version | Previous Version | Text Only | Print | Product List | Glossary On
Versions: 1 2 3 4 5 6 7 8 9 10 11 12 13 14 15 16 17 18 19 20 21 22 23 24 25 26 27 28 29 30 31 32 33 34 35 36 37 38 39 40 41 42 43 44 45 46 47 48 49 50
000
SXUS52 KTAE 292218
OSOTAE
OSOTAE
North Florida/South Alabama/Southwest Georgia Weather Roundup
National Weather Service Tallahassee Florida
600 PM EDT FRI AUG 29 2014

Note: "fair" indicates few or no clouds below 12,000 feet with no
significant weather and/or obstructions to visibility.

!FLZ017-115-028-034-025-292300
...North Florida...

CITY           SKY/WX    TMP DP  RH WIND       PRES   REMARKS
TALLAHASSEE    CLOUDY    83  77  82 NE3       30.00F HX  92
APALACHICOLA   CLOUDY    81  76  84 NE6       29.98F
PERRY          CLOUDY    81  73  78 NE3       30.02F
CROSS CITY       N/A     85  74  69 W5        30.02S HX  92
HOMERVILLE     PTSUNNY   91  70  49 CALM      30.02R HX  97
JACKSONVILLE   PTSUNNY   85  75  72 E12       30.05R HX  93
$$

!FLZ112-006-005-002-011-292300
...Florida Panhandle...

CITY           SKY/WX    TMP DP  RH WIND       PRES   REMARKS
MARIANNA       CLOUDY    78  77  96 SE5       29.99F
BONIFAY        LGT RAIN  79  74  84 SE6       30.00F
PANAMA CITY NW FAIR      86  74  67 E7        29.98F HX  94
TYNDALL AFB    CLOUDY    85  76  75 SE7       29.99F HX  94
TYND DRONE APT FAIR      85  76  74 E6        29.97F HX  94
DE FUNIAK SPR  FAIR      85  73  68 S9        29.99F HX  92
EGLIN AFB      PTSUNNY   85  75  72 SE12      29.99R HX  93
DESTIN         CLOUDY    86  77  74 S10G18    29.99R HX  97
HURLBURT       CLOUDY    85  72  64 S13       29.99R HX  91
CRESTVIEW      CLOUDY    85  73  67 S9        30.00S HX  91
PENSACOLA      CLOUDY    83  75  77 S13       29.99R HX  90
$$

!ALZ063-066-292300
...South Alabama...

CITY           SKY/WX    TMP DP  RH WIND       PRES   REMARKS
DOTHAN         PTSUNNY   84  69  60 S9        30.02F
OZARK CAIRNS   PTSUNNY   86  71  62 S9        29.99F HX  91
FT RUCKER HELI PTSUNNY   87  70  56 S12       29.97S HX  92
RUCKER HELI 3  FAIR      88  71  56 S13G21    30.00F HX  94
RUCKER HELI 2  FAIR      86  69  56 S6        29.98F HX  90
FLORALA APT    CLOUDY    88  72  58 S7        30.00S HX  94
ANDALUSIA      PTSUNNY   96  67  38 SE5       29.97F HX 100
TROY           MOSUNNY   94  65  38 CALM      29.98F HX  96
EUFALA         FAIR      98  63  31 S3        29.97F HX 100
MOBILE         CLOUDY    81  76  84 S12       30.00R
$$

!GAZ120>161-292300
...Southwest and South Central Georgia...

CITY           SKY/WX    TMP DP  RH WIND       PRES   REMARKS
THOMASVILLE    FAIR      86  73  66 SW6       30.02F HX  93
BAINBRIDGE     CLOUDY    81  77  89 S5        30.00F
MOODY AFB      CLOUDY    91  69  48 S2        30.02R HX  95
VALDOSTA       CLOUDY    88  73  61 VRB5      30.02R HX  95
MOULTRIE       PTSUNNY   86  73  66 S5        30.03S HX  93
BLAKELY        PTSUNNY   86  72  62 S5          N/A  HX  92
ALBANY         PTSUNNY   86  74  67 SW9       30.01F HX  94
TIFTON         PTSUNNY   94  58  30 S6        30.01S HX  92
FITZGERALD     FAIR      96  53  23 CALM      30.03S HX  94
CORDELE        FAIR      98  57  25 SW7       30.01S HX  96
AMERICUS       FAIR      95  61  31 E6        30.01F HX  95
$$

!GMZ750-755-770-775-292300
...Coastal and Buoy Obs...

STATION/POSITION TIME  TEMP    WIND        PRES    VSBY  WAVE
                       AIR SEA DIR/SP/G                  HT/PER
                 (UTC) (F)     (DEG/KT/KT) (MB)    (MI)  (FT/S)
KEATON BEACH     2200   82     220/  4/  5 1016.7F
CEDAR KEY        2200   82     250/  6/  9 1017.2S
C TOWER          2200   82     140/  5/  6 1015.9F
APALACHICOLA BUO 2200   84 87   CALM  /  2 1016.3F         2/ 5
PANAMA CITY BUOY 2101   84 86  160/  6/  8 1015.8          2/ 5
MOBILE BUOY      2054   83 85  160/  8/ 10 1015.5
ORANGE BCH AL BU 2200   83 85  170/ 10/ 14 1015.5R         4/ 5
$$



USA.gov is the U.S. government's official web portal to all federal, state and local government web resources and services.